Flag for Denmark Weather past 2 weeks in Randers, Denmark

Now
54 °F

Cool.


Feels Like: 50 °F
Forecast: 50 / 65 °F
Wind: 10 mph from West

Location: Tirstrup

Current Time: Aug 21, 2014 at 12:41:31 AM

Latest Report: Aug 21, 2014 at 12:20 AM


Visibility: N/A

Pressure: 29.77 "Hg

Humidity: 77%

Dew point: 46 °F

Location of RandersLocation

Historic Weather in Randers — Graph

°F

Randers temperature yesterday

Maximum temperature yesterday: 64 °F (at 12:20 PM)
Minimum temperature yesterday: 54 °F (at 5:20 AM)
Average temperature yesterday: 58 °F

Past Weeks' High & Low Weather Summary

 TemperatureHumidityPressure
High75 °F (Aug 8, 2:50 PM)94% (Aug 8, 5:50 AM)30.04 "Hg (Aug 8, 5:50 AM)
Low52 °F (Aug 16, 6:20 AM)35% (Aug 11, 7:20 PM)29.30 "Hg (Aug 18, 9:50 AM)
Average62 °F69%29.71 "Hg
* Reported Aug 5 10:20 PM — Aug 20 10:50 PM, Randers, Weather by CustomWeather, © 2014

Note: Actual official high and low records may vary slightly from our data, if they occured in-between our weather recording intervals... More about our weather records

Advertising

Randers weather history for previous 24 hours

 ConditionsComfort  
Time TempWeatherWind HumidityBarometerVisibility
10:50 PM
Aug 20
55 °FCool.13 mph72%29.77 "HgN/A
10:20 PM55 °FCool.12 mph72%29.77 "HgN/A
9:50 PM55 °FCool.12 mph67%29.77 "HgN/A
9:20 PM55 °FCool.12 mph67%29.77 "HgN/A
8:50 PM57 °FCool.13 mph63%29.77 "HgN/A
8:20 PM57 °FPassing clouds.13 mph63%29.74 "HgN/A
7:50 PM59 °FPassing clouds.14 mph59%29.74 "HgN/A
7:20 PM61 °FPassing clouds.15 mph59%29.74 "HgN/A
6:50 PM61 °FScattered clouds.15 mph52%29.71 "HgN/A
6:20 PM61 °FScattered clouds.18 mph52%29.71 "HgN/A
5:50 PM63 °FMild.21 mph49%29.74 "HgN/A
5:20 PM63 °FPassing clouds.17 mph52%29.71 "HgN/A
4:50 PM63 °FScattered clouds.15 mph52%29.71 "HgN/A
4:20 PM64 °FMild.22 mph43%29.71 "HgN/A
3:50 PM63 °FScattered clouds.16 mph52%29.71 "HgN/A
3:20 PM61 °FPartly sunny.20 mph55%29.71 "HgN/A
2:50 PM63 °FPassing clouds.17 mph52%29.68 "HgN/A
2:20 PM64 °FScattered clouds.18 mph49%29.68 "HgN/A
1:50 PM63 °FPassing clouds.18 mph52%29.68 "HgN/A
1:20 PM63 °FScattered clouds.15 mph52%29.68 "HgN/A
12:50 PM59 °FSprinkles. Partly sunny.20 mph63%29.65 "HgN/A
12:20 PM64 °FPassing clouds.18 mph46%29.65 "HgN/A
11:50 AM61 °FPartly sunny.17 mph55%29.65 "HgN/A
11:20 AM63 °FScattered clouds.21 mph52%29.65 "HgN/A
10:50 AM61 °FPartly sunny.17 mph59%29.65 "HgN/A
10:20 AM61 °FPassing clouds.17 mph63%29.62 "HgN/A
9:50 AM59 °FBroken clouds.15 mph72%29.62 "HgN/A
9:20 AM57 °FPartly sunny.14 mph72%29.62 "HgN/A
8:50 AM55 °FPartly sunny.14 mph77%29.59 "HgN/A
8:20 AM55 °FPartly sunny.14 mph77%29.59 "HgN/A
7:50 AM55 °FPartly sunny.16 mph77%29.59 "HgN/A
7:20 AM55 °FScattered clouds.14 mph77%29.59 "HgN/A
6:50 AM54 °FCool.14 mph82%29.56 "HgN/A
6:20 AM54 °FPassing clouds.13 mph82%29.56 "HgN/A
5:50 AM54 °FCool.12 mph82%29.56 "HgN/A
5:20 AM54 °FPassing clouds.13 mph82%29.56 "HgN/A
4:50 AM55 °FPassing clouds.12 mph77%29.56 "HgN/A
4:20 AM55 °FPassing clouds.12 mph77%29.56 "HgN/A
3:50 AM55 °FPassing clouds.12 mph77%29.56 "HgN/A
3:20 AM55 °FPassing clouds.12 mph77%29.56 "HgN/A
2:50 AM55 °FSprinkles. Passing clouds.13 mph77%29.56 "HgN/A
2:20 AM55 °FSprinkles. Passing clouds.13 mph77%29.56 "HgN/A
1:50 AM55 °FSprinkles. Passing clouds.9 mph77%29.56 "HgN/A
1:20 AM55 °FLight rain. Passing clouds.12 mph77%29.56 "HgN/A
12:50 AM55 °FLight rain. Passing clouds.10 mph77%29.56 "HgN/A
12:20 AM55 °FPartly cloudy.8 mph77%29.56 "HgN/A
Weather by CustomWeather, © 2014

See weather overviewHow to use our weather pages